Maun, Botswana

12:38 AM CAT on March 30, 2017 (GMT +0200)
Maun

Weather History for FBMN - July, 2013

Change the Weather History Date:

Monday, July 29, 2013

  Actual Average Record
Temperature  
Mean Temperature 64 °F -  
Max Temperature 78 °F 82 °F 91 °F (2002)
Min Temperature 51 °F 53 °F 32 °F (2004)
Growing Degree Days 14 (Base 50)    
Moisture  
Dew Point 23 °F    
Average Humidity 21    
Maximum Humidity 38    
Minimum Humidity 7    
Precipitation  
Precipitation 0.00 in - - ()
Sea Level Pressure  
Sea Level Pressure 30.28 in    
Wind  
Wind Speed 7 mph ()    
Max Wind Speed 14 mph    
Max Gust Speed -    
Visibility 6.0 miles    
Events      
Averages and records for this station are not official NWS values.
T = Trace of Precipitation, MM = Missing Value Source: Averaged Metar Reports

Daily Weather History Graph

Daily Weather History Graph

Search for Another Location

Airport or City:

Trip Planner

Search our weather history database for the weather conditions in past years. The results will help you decide how hot, cold, wet, or windy it might be!

Date:

Astronomy

Jul. 29, 2013 Rise Set
Actual Time 6:57 AM CAT 6:08 PM CAT
Civil Twilight 6:34 AM CAT 6:31 PM CAT
Nautical Twilight 6:07 AM CAT 6:58 PM CAT
Astronomical Twilight 5:41 AM CAT 7:24 PM CAT
Moon No Moon Rise 11:37 AM CAT
Length of Visible Light 11h 57m
Length of Day
11h 11m
Waning Gibbous, 53% of the Moon is Illuminated
Jul 29
Waning Gibbous
Jul 29
Last Quarter
Aug 6
New
Aug 14
First Quarter
Aug 21
Full

Hourly Weather History & Observations

Time (CAT) Temp. Dew Point Humidity Pressure Visibility Wind Dir Wind Speed Gust Speed Precip Events Conditions
12:00 AM 62.6 °F 23.0 °F 22% 30.21 in - South 5.8 mph - N/A   Clear
1:00 AM 62.6 °F 26.6 °F 26% 30.24 in - South 5.8 mph - N/A   Clear
3:00 AM 57.2 °F 28.4 °F 33% 30.24 in - SSE 6.9 mph - N/A   Clear
5:00 AM 55.4 °F 30.2 °F 38% 30.24 in - South 9.2 mph - N/A   Clear
6:00 AM 53.6 °F 26.6 °F 35% 30.27 in - South 11.5 mph - N/A   Clear
7:00 AM 51.8 °F 26.6 °F 38% 30.30 in - South 10.4 mph - N/A   Clear
8:00 AM 53 °F 26 °F 22%  in 6 mi South 8.1 mph - -   Partly Cloudy
8:00 AM 53.6 °F 24.8 °F 33% 30.33 in - South 8.1 mph - N/A   Clear
9:00 AM 57.2 °F 24.8 °F 29% 30.33 in - South 11.5 mph - N/A   Clear
10:00 AM 60.8 °F 23.0 °F 23% 30.27 in - SSE 10.4 mph - N/A   Clear
11:00 AM 66.2 °F 24.8 °F 21% 30.36 in - SSE 11.5 mph - N/A   Clear
12:00 PM 69.8 °F 24.8 °F 18% 30.33 in - SE 13.8 mph - N/A   Clear
1:00 PM 73.4 °F 26.6 °F 18% 30.30 in - SSE 13.8 mph - N/A   Clear
2:00 PM 76 °F 25 °F 7%  in 6 mi SSE 9.2 mph - -   Partly Cloudy
2:00 PM 75.2 °F 24.8 °F 15% 30.27 in - SSE 9.2 mph - N/A   Clear
3:00 PM 77.0 °F 23.0 °F 13% 30.27 in - South 12.7 mph - N/A   Clear
4:00 PM 78.8 °F 23.0 °F 13% 30.27 in - South 8.1 mph - N/A   Clear
6:00 PM 78.8 °F 21.2 °F 12% 30.24 in - South 5.8 mph - N/A   Clear
7:00 PM 66.2 °F 21.2 °F 18% 30.27 in - South 4.6 mph - N/A   Clear
8:00 PM 64 °F 22 °F 11%  in 6 mi South 5.8 mph - -   Partly Cloudy
8:00 PM 64.4 °F 23.0 °F 21% 30.27 in - South 5.8 mph - N/A   Clear
9:00 PM 62.6 °F 17.6 °F 18% 30.30 in - South 8.1 mph - N/A   Clear
10:00 PM 62.6 °F 12.2 °F 14% 30.30 in - South 6.9 mph - N/A   Clear
11:00 PM 60.8 °F 12.2 °F 15% 30.30 in - South 5.8 mph - N/A   Clear